Terminal Aerodrome Forecast
Issued by NWS Houston/Galveston TX

Home | Current Version | Previous Version | Text Only | Print | Product List | Glossary On
Versions: 1 2 3 4 5 6 7 8 9 10 11 12 13 14 15 16 17 18 19 20 21 22 23 24 25 26 27 28 29 30 31 32 33 34 35 36 37 38 39 40 41 42 43 44 45 46 47 48 49
000
FTUS44 KHGX 291122
TAFHOU
TAF
KHOU 291122Z 2912/3012 VRB03KT 1/2SM FG VV001
      TEMPO 2914/2915 2SM BR BKN004
     FM291530 22004KT 4SM BR BKN007
     FM291630 23007KT P6SM SCT015 SCT110 SCT250
     FM292000 26005KT P6SM SCT035 SCT120
     FM300400 36012KT P6SM SCT030 BKN110 BKN200
     FM301100 03011KT P6SM SCT120 OVC200=

USA.gov is the U.S. government's official web portal to all federal, state and local government web resources and services.